Simultaneous Nadir Overpasses (SNOs) Predictions

Prediction of SNOs between AQUA and METOP-B Satellite Orbit:

Table of predicted SNOs for the next 14.0 days since TLE Epoch: 10/8/2022
Index Date (AQUA) Time (AQUA) Lat,Lon (AQUA) SZA (AQUA ) Date (METOP-B) Time (METOP-B) Lat,Lon (METOP-B) SZA (METOP-B ) Distance(km) Time Diff (sec)
1 10/10/2022 02:04:27 74.06, 143.80 80.57 10/10/2022 02:04:05 74.06, 143.75 80.57 1.42 22
2 10/10/2022 02:53:53 -74.12, -48.68 99.37 10/10/2022 02:54:46 -74.11, -48.80 99.37 3.60 53
3 10/12/2022 20:48:22 -74.06, 42.84 98.39 10/12/2022 20:47:50 -74.05, 42.79 98.40 2.43 32
4 10/12/2022 21:37:50 74.12,-149.67 81.69 10/12/2022 21:38:28 74.12,-149.69 81.69 0.86 38
5 10/15/2022 15:32:16 74.03, -58.06 82.62 10/15/2022 15:31:31 74.04, -58.14 82.63 2.90 45
6 10/15/2022 16:21:43 -74.13, 109.35 97.27 10/15/2022 16:22:11 -74.15, 109.45 97.26 3.39 28
7 10/18/2022 10:16:09 -74.05,-159.05 96.35 10/18/2022 10:15:15 -74.07,-159.01 96.34 2.05 54
8 10/18/2022 11:05:37 74.12, 8.43 83.73 10/18/2022 11:05:53 74.13, 8.49 83.75 2.49 16
9 10/18/2022 11:55:16 -74.83, 174.34 95.53 10/18/2022 11:56:21 -74.82, 177.64 95.55 96.01 65
10 10/21/2022 05:00:02 74.05, 100.00 84.65 10/21/2022 04:58:57 74.04, 100.00 84.64 1.28 65
11 10/21/2022 05:49:28 -74.10, -92.47 95.29 10/21/2022 05:49:38 -74.10, -92.52 95.29 1.61 10



Historial Predications of SNOs between AQUA and METOP-B
